|  Orbital Elements
Epoch 2025 May 5.0 TT = JDT 2460800.5
T 2025 June 16.49646 TT                                 Pike
q   2.9262524            (2000.0)            P               Q
n   0.12836219     Peri.  213.67894     +0.09226986     +0.98573450
a   3.8920461      Node    61.97578     -0.87478500     +0.14777529
e   0.2481455      Incl.    9.17544     -0.47564428     -0.08056025
P   7.68
From 3180 observations 2013 Jan. 1-2025 July 31, mean residual 0".7.
     Nongravitational parameters A1 = -0.20, A2 = -0.0220.
 |